Regional Weather Roundup
Issued by NWS

Home | Current Version | Previous Version | Graphics & Text | Print | Product List | Glossary On
Versions: 1 2 3 4 5 6 7 8 9 10 11 12 13 14 15 16 17 18 19 20 21 22 23 24 25 26 27 28 29 30 31 32 33 34 35 36 37 38 39 40 41 42 43 44 45 46 47 48 49 50
530
ASUS44 KMEG 192110
RWRTN
TENNESSEE HOURLY STATE WEATHER ROUNDUP
NATIONAL WEATHER SERVICE MEMPHIS TN
300 PM CST THU JAN 19 2017

TNZ002-004-019-021-049-052-054-088>092-192200-
WEST TENNESSEE

CITY           SKY/WX    TMP DP  RH WIND       PRES   REMARKS
MEMPHIS INTL   LGT RAIN  63  62  97 S21       29.70S
NWS MEMPHIS      N/A     63 N/A N/A MISG        N/A
JACKSON        LGT RAIN  62  61  96 SW6       29.75S
DYERSBURG      CLOUDY    63  59  88 W6        29.72R
UNION CITY     CLOUDY   N/A N/A N/A CALM      29.72S
PARIS          CLOUDY    54  54 100 SE8       29.75F
HUNTINGDON     MOSUNNY   59  59 100 SE7       29.74F FOG
$$

TNZ008-025-027-028-033-062-065-066-192200-
NORTH MIDDLE TENNESSEE

CITY           SKY/WX    TMP DP  RH WIND       PRES   REMARKS
NASHVILLE      LGT RAIN  58  56  93 S7        29.82F FOG
PORTLAND       CLOUDY    55  55 100 S6        29.82F FOG
CLARKSVILLE    LGT RAIN  54  52  93 S7        29.79F FOG
SMYRNA         RAIN      59  57  94 NW3       29.83F FOG
GALLATIN       CLOUDY    55  54  94 CALM      29.85F FOG
CROSSVILLE     CLOUDY    58  52  80 SE7       29.89F
$$

TNZ061-075-076-078-094-096-097-192200-
SOUTH MIDDLE TENNESSEE

CITY           SKY/WX    TMP DP  RH WIND       PRES   REMARKS
TULLAHOMA      CLOUDY    57  57 100 SE6       29.85F
WINCHESTER     CLOUDY    57  55  94 SE10      29.86R
MCMINNVILLE    CLOUDY    61  61 100 VRB3      29.85F
COLUMBIA       PTSUNNY  N/A N/A N/A S3        29.79F
SHELBYVILLE    CLOUDY    61  61 100 SE7       29.84F
$$

TNZ017-018-042-046-047-192200-
NORTHEAST TENNESSEE

CITY           SKY/WX    TMP DP  RH WIND       PRES   REMARKS
TRI CITIES     CLOUDY    60  37  42 W8        29.95F
ELIZABETHTON   CLOUDY    64  37  36 CALM      29.94F
$$

TNZ012-013-036-069-073-074-192200-
CENTRAL EAST TENNESSEE

CITY           SKY/WX    TMP DP  RH WIND       PRES   REMARKS
KNOXVILLE      CLOUDY    58  44  60 NE5       29.92F
OAK RIDGE      CLOUDY    56  44  64 NE3       29.94F
GATLINBURG     MOSUNNY   55  43  62 CALM      29.93F
MORRISTOWN     CLOUDY    55  46  71 E6        29.93F
JACKSBORO      CLOUDY    52  48  87 CALM      29.97F
$$

TNZ083-085-099-192200-
SOUTHEAST TENNESSEE

CITY           SKY/WX    TMP DP  RH WIND       PRES   REMARKS
CHATTANOOGA    CLOUDY    59  44  57 N3        29.91F
$$

SKY/WX REPORTED AS FAIR MEANS FEW OR NO CLOUDS BELOW
12 THOUSAND FEET.





USA.gov is the U.S. government's official web portal to all federal, state and local government web resources and services.